Location: Augirein
(42.9320°N, 0.9181°E)
Time: 19:41:34
(UTC+00:00)

USA 290 - Pass Details

Date: 20 June 2021
Orbit: 401 x 412 km, 73.6° (Epoch: 10 July)

Event Time Altitude Azimuth Distance (km) Brightness Sun altitude
Exits shadow 02:43:49 13° 271° (W) 1,279 4.3 -13.4°
Maximum altitude 02:45:09 16° 300° (WNW) 1,142 4.4 -13.3°
Drops below altitude 10° 02:47:18 10° 342° (NNW) 1,470 5.5 -13.0°
Sets 02:49:53 0° 5° (N) 2,333 7.0 -12.7°
